Simultaneous Nadir Overpasses (SNOs) Predictions

Prediction of SNOs between METOP-B and NOAA-19 Satellite Orbit:

Table of predicted SNOs for the next 14.0 days since TLE Epoch: 5/17/2019
Index Date (METOP-B) Time (METOP-B) Lat,Lon (METOP-B) SZA (METOP-B ) Date (NOAA-19) Time (NOAA-19) Lat,Lon (NOAA-19) SZA (NOAA-19 ) Distance(km) Time Diff (sec)
1 05/22/2019 08:40:14 79.26, 65.72 59.33 05/22/2019 08:38:59 79.24, 65.66 59.29 2.84 75
2 05/22/2019 09:30:56 -79.25,-127.03 120.69 05/22/2019 09:29:58 -79.23,-127.07 120.72 1.75 58
3 05/22/2019 10:21:36 79.24, 40.28 59.30 05/22/2019 10:21:00 79.24, 40.12 59.28 3.29 36
4 05/22/2019 11:12:18 -79.23,-152.47 120.73 05/22/2019 11:11:59 -79.24,-152.60 120.73 2.75 19
5 05/22/2019 12:02:58 79.23, 14.83 59.27 05/22/2019 12:03:00 79.21, 14.85 59.25 1.91 2
6 05/22/2019 12:53:40 -79.22,-177.92 120.76 05/22/2019 12:53:59 -79.21,-177.87 120.76 1.39 19
7 05/22/2019 13:44:20 79.22, -10.61 59.23 05/22/2019 13:45:01 79.22, -10.69 59.24 1.68 41
8 05/22/2019 14:35:02 -79.21, 156.64 120.79 05/22/2019 14:36:00 -79.21, 156.59 120.77 1.39 58




NCC Satellite Simultaneous Nadir Overpasses (SNOs) Prediction Service
